Retour au catalogue

SL-12 DEB

LostHEO
NORAD 29450·DEBRIS·🇷🇺 Russia

Lancé May 31, 1989 depuis Baikonur Cosmodrome

Loading…

Prochains Passages (prochaines 24 heures)

TLE

PériméSource: Space-Track

Époque: Sep 25, 2018, 07:35 UTC

1 29450U 89039CU  18268.31605905  .00000001  00000-0  00000+0 0  9993
2 29450  63.8639 269.6460 4974193 340.3403   5.8026  4.28951628190831

Suivez SL-12 DEB en temps réel avec AllMySat

Download on the App Store